Regional Weather Roundup
Issued by NWS

Home | Current Version | Previous Version | Text Only | Print | Product List | Glossary On
Versions: 1 2 3 4 5 6 7 8 9 10 11 12 13 14 15 16 17 18 19 20 21 22 23 24 25 26 27 28 29 30 31 32 33 34 35 36 37 38 39 40 41 42 43 44 45 46 47 48 49 50
000
ASUS43 KLOT 070812
RWRIL

ILLINOIS REGIONAL WEATHER ROUNDUP
NATIONAL WEATHER SERVICE CHICAGO/ROMEOVILLE IL
300 AM CDT THU MAY 07 2015

NOTE: "FAIR" INDICATES FEW OR NO CLOUDS BELOW 12,000 FEET WITH NO
SIGNIFICANT WEATHER AND/OR OBSTRUCTIONS TO VISIBILITY.

* THESE STATIONS ARE NOT UNDER NWS QUALITY CONTROL. THEY ALSO MAY NOT
  REPORT WEATHER SUCH AS PRECIPITATION OR FOG.

ILZ001-002-007-009-015-016-024-070900-
NORTHWEST ILLINOIS

CITY           SKY/WX    TMP DP  RH WIND       PRES   REMARKS
MOLINE         CLEAR     65  54  67 SE7       29.97S
STERLING*      CLEAR     64  54  68 S5        30.00F
SAVANNA*       CLEAR     64  55  73 S8        29.99S
$$

ILZ003-004-008-010-011-017-018-070900-
NORTH CENTRAL ILLINOIS

CITY           SKY/WX    TMP DP  RH WIND       PRES   REMARKS
ROCKFORD       CLEAR     61  55  81 SE7       30.03F HAZE
FREEPORT*      CLEAR     57  54  88 SE5       30.02F
ROCHELLE*      CLEAR     61  55  81 SE8       30.02F
DE KALB*       CLEAR     59  54  82 SE8       30.04F
PERU*          CLEAR     64  54  71 SE9       30.03S
$$

ILZ005-006-012>014-019>023-070900-
NORTHEAST ILLINOIS

CITY           SKY/WX    TMP DP  RH WIND       PRES   REMARKS
CHICAGO-OHARE  PTCLDY    53  50  89 E3        30.05F
CHICAGO-MIDWAY PTCLDY    58  51  78 SE3       30.05F
AURORA         CLEAR     60  53  77 SE7       30.04F HAZE
LANSING*       PTCLDY    57  52  81 CALM      30.07F
JOLIET*        CLEAR     60  56  88 CALM      30.04F
WAUKEGAN       PTCLDY    46  44  93 E3        30.05F
DUPAGE AIRPORT CLEAR     58  54  86 CALM      30.04F
KANKAKEE*      CLEAR     62  56  81 CALM      30.06F
WHEELING       CLEAR     50  46  86 CALM      30.07F
MORRIS*        CLEAR     63  54  73 S5        30.01F
ROMEOVILLE*    CLEAR     63  54  71 S6        30.04F
NORTHERLY ISL    N/A     50  48  93 CALM        N/A
$$

LMZ740>746-070900-
SOUTHERN LAKE MICHIGAN

STATION/POSITION SKY/WX   TEMP    WIND        PRES    VSBY  WAVE
                          AIR SEA DIR/SP/G                  HT/PER
                          (F)     (DEG/KT/KT) (MB)    (MI)  (FT/S)
HARRISON CRIB              56     180/  4/  6   N/A
BURNHAM HARBOR             50      CALM  /  2   N/A
CALUMET HARBOR             50        CALM       N/A
BURNS HARBOR               70     140/  8/ 13 1019.0F
MICHIGAN CITY              68     120/ 10/ 12   N/A
MICHIGAN CITY 6N           61 53  160/  8/ 10   N/A           1
ST. JOSEPH                 60 51  170/ 10/ 10   N/A           1
$$

ILZ025>027-034>036-040-047-049-050-058-095>099-070900-
WEST-CENTRAL ILLINOIS

CITY           SKY/WX    TMP DP  RH WIND       PRES   REMARKS
QUINCY         MOCLDY    65  51  60 SE8       29.98S
GALESBURG*     CLEAR     65  54  69 SE8       29.99S
MACOMB*        CLEAR     65  55  72 S8        30.01S
JACKSONVILLE*  PTCLDY    71  54  55 S9        30.01S
PITTSFIELD*    PTCLDY    68  53  58 SE8       30.01S
$$

ILZ028>032-037-038-041>044-048-051>054-059>061-070900-
CENTRAL ILLINOIS

CITY           SKY/WX    TMP DP  RH WIND       PRES   REMARKS
PONTIAC        CLEAR     60  57  88 CALM      30.05S
BLOOMINGTON    CLEAR     63  56  78 S9        30.05F
DECATUR        CLEAR     65  54  67 S6        30.05F
PEORIA         CLEAR     69  54  58 S8        30.01F
LACON*         CLEAR     64  54  69 SE6       30.01S
LINCOLN*       CLEAR     65  55  69 S5        30.02S
SPRINGFIELD    CLEAR     69  54  58 S10       30.03S
TAYLORVILLE    CLEAR     63  54  72 S6        30.04S
$$

ILZ033-039-045-046-055>057-062-063-070900-
EAST-CENTRAL ILLINOIS

CITY           SKY/WX    TMP DP  RH WIND       PRES   REMARKS
CHAMPAIGN      CLEAR     64  54  69 SE6       30.06F
DANVILLE*      CLEAR     64  54  69 CALM      30.05S
RANTOUL*       CLEAR     64  55  74 SE3       30.06F
MATTOON        CLEAR     64  55  72 S5        30.05F
PARIS*         CLEAR     61  54  79 CALM      30.08S
$$

ILZ079-100>102-070900-
SOUTHWEST ILLINOIS

CITY           SKY/WX    TMP DP  RH WIND       PRES   REMARKS
ALTON          PTCLDY    62  58  87 SE6       30.03S
BELLEVILLE     PTCLDY    60  59  96 CALM      30.03S
CAHOKIA*       MOCLDY    66  55  67 S7        30.01F
SPARTA*        PTCLDY    61  56  81 SE5       30.05S
$$

ILZ064>066-069>071-074>076-080>082-084>086-088>090-092>094-070900-
SOUTH-CENTRAL ILLINOIS

CITY           SKY/WX    TMP DP  RH WIND       PRES   REMARKS
CARBONDALE     CLEAR     58  55  90 CALM      30.05S
CAIRO*         CLEAR     58  55  89 CALM      30.05S
EFFINGHAM*     CLEAR     60  55  83 E5        30.07S
MARION         CLEAR     66  57  72 CALM      30.06S
MT. VERNON     PTCLDY   N/A N/A N/A CALM      30.06S
CENTRALIA*     CLEAR     62  55  77 SE5       30.05S
SALEM*         CLEAR     64  56  75 SE3       30.06S
METROPOLIS*    CLEAR     58  58 100 CALM      30.06S FOG
$$

ILZ067-068-072-073-078-083-087-091-070900-
SOUTHEAST ILLINOIS

CITY           SKY/WX    TMP DP  RH WIND       PRES   REMARKS
LAWRENCEVILLE  MOCLDY    65  59  81 CALM      30.07F
FLORA*         CLEAR     59  55  86 CALM      30.07S
FAIRFIELD*     CLEAR     61  58  90 CALM      30.06S
HARRISBURG*    CLEAR     59  58  96 CALM      30.07S
ROBINSON*      PTCLDY    59  55  87 CALM      30.08S
CARMI*         CLEAR     58  53  84 CALM      30.06S
$$

ABBREVIATIONS USED IN REMARKS
   TC - TEMPERATURE IN CELSIUS
  WCI - WIND CHILL INDEX
   HX - HEAT INDEX
  VSB - VISIBILITY
$$




USA.gov is the U.S. government's official web portal to all federal, state and local government web resources and services.